| time (UTC) | temp F | wind direction | speed MPH | gust MPH | rain 1hr in | rain 24hr in | rain mn in | humidity % | barometer mb |
| 20260901111826 | 69 | 355 | 0.0 | 0.0 | 0.02 | 0.04 | 0.03 | 97 | 1015.9 |
| 20260901111326 | 69 | 355 | 0.0 | 0.0 | 0.02 | 0.04 | 0.03 | 97 | 1015.9 |
| 20260901110823 | 69 | 355 | 0.0 | 0.0 | 0.02 | 0.04 | 0.03 | 97 | 1015.8 |
| 20260901110319 | 70 | 355 | 0.0 | 0.0 | 0.01 | 0.03 | 0.02 | 97 | 1016.1 |
| 20260901105816 | 69 | 336 | 0.0 | 0.0 | 0.00 | 0.02 | 0.01 | 97 | 1016.4 |
| 20260901105313 | 69 | 336 | 0.0 | 0.0 | 0.00 | 0.02 | 0.01 | 97 | 1016.2 |
| 20260901104829 | 69 | 336 | 0.0 | 0.0 | 0.00 | 0.02 | 0.01 | 96 | 1016.1 |
| 20260901104326 | 69 | 336 | 0.0 | 0.0 | 0.00 | 0.02 | 0.01 | 96 | 1016.1 |
| 20260901103827 | 69 | 336 | 0.0 | 0.0 | 0.00 | 0.02 | 0.01 | 96 | 1016.1 |
| 20260831203311 | 73 | 320 | 0.0 | 2.0 | 0.00 | 0.01 | 0.00 | 82 | 1018.8 |
| 20260831202826 | 73 | 320 | 0.0 | 3.0 | 0.00 | 0.01 | 0.00 | 82 | 1018.9 |
| 20260831202322 | 73 | 317 | 1.0 | 3.0 | 0.00 | 0.01 | 0.00 | 82 | 1019.0 |
| 20260831201823 | 73 | 13 | 0.0 | 2.0 | 0.00 | 0.01 | 0.00 | 82 | 1018.8 |
| 20260831201320 | 73 | 103 | 0.0 | 3.0 | 0.00 | 0.01 | 0.00 | 83 | 1018.8 |
| 20260831200816 | 72 | 305 | 1.0 | 3.0 | 0.00 | 0.01 | 0.00 | 85 | 1018.9 |
| 20260831200313 | 72 | 29 | 0.0 | 2.0 | 0.00 | 0.01 | 0.00 | 84 | 1019.0 |
| 20260831195828 | 72 | 329 | 0.0 | 1.0 | 0.00 | 0.01 | 0.00 | 86 | 1019.1 |
| 20260831195324 | 71 | 329 | 0.0 | 2.0 | 0.00 | 0.01 | 0.00 | 85 | 1019.1 |
| 20260831194820 | 71 | 329 | 0.0 | 3.0 | 0.00 | 0.01 | 0.00 | 86 | 1019.2 |
| 20260831194320 | 71 | 336 | 1.0 | 3.0 | 0.00 | 0.01 | 0.00 | 86 | 1019.4 |
| 20260831193816 | 71 | 330 | 1.0 | 3.0 | 0.00 | 0.01 | 0.00 | 85 | 1019.6 |
| 20260831193313 | 72 | 360 | 0.0 | 3.0 | 0.00 | 0.01 | 0.00 | 85 | 1019.6 |
| 20260831192829 | 72 | 286 | 1.0 | 3.0 | 0.00 | 0.01 | 0.00 | 84 | 1019.6 |
| 20260831192326 | 73 | 188 | 0.0 | 7.0 | 0.00 | 0.01 | 0.00 | 83 | 1019.7 |
| 20260831191823 | 73 | 187 | 1.0 | 2.0 | 0.00 | 0.01 | 0.00 | 80 | 1019.7 |
| 20260831191318 | 74 | 281 | 0.0 | 1.0 | 0.00 | 0.01 | 0.00 | 80 | 1019.6 |
| 20260831190819 | 74 | 281 | 0.0 | 0.0 | 0.00 | 0.01 | 0.00 | 79 | 1019.7 |
| 20260831190315 | 74 | 281 | 0.0 | 0.0 | 0.00 | 0.01 | 0.00 | 79 | 1019.7 |
| 20260831185811 | 74 | 281 | 0.0 | 2.0 | 0.00 | 0.01 | 0.00 | 78 | 1019.7 |
| 20260831185328 | 74 | 276 | 0.0 | 2.0 | 0.00 | 0.01 | 0.00 | 77 | 1019.7 |
| 20260831184825 | 74 | 258 | 0.0 | 0.0 | 0.00 | 0.01 | 0.00 | 78 | 1019.7 |
| 20260831184320 | 74 | 258 | 0.0 | 0.0 | 0.00 | 0.01 | 0.00 | 78 | 1019.7 |
| 20260831183817 | 74 | 258 | 0.0 | 0.0 | 0.00 | 0.01 | 0.00 | 77 | 1019.7 |
| 20260831183317 | 74 | 258 | 0.0 | 0.0 | 0.00 | 0.01 | 0.00 | 77 | 1019.7 |
| 20260831182811 | 74 | 258 | 0.0 | 0.0 | 0.00 | 0.01 | 0.00 | 77 | 1019.5 |
| 20260831182328 | 75 | 258 | 0.0 | 0.0 | 0.00 | 0.01 | 0.00 | 78 | 1019.5 |
| 20260831181825 | 75 | 258 | 0.0 | 0.0 | 0.00 | 0.01 | 0.00 | 77 | 1019.5 |
| 20260831181320 | 75 | 258 | 0.0 | 0.0 | 0.00 | 0.01 | 0.00 | 76 | 1019.6 |
| 20260831180817 | 75 | 258 | 0.0 | 0.0 | 0.00 | 0.01 | 0.00 | 76 | 1019.6 |
| 20260831180313 | 75 | 258 | 0.0 | 0.0 | 0.00 | 0.01 | 0.00 | 74 | 1019.8 |
| 20260831175813 | 75 | 258 | 0.0 | 0.0 | 0.00 | 0.01 | 0.00 | 73 | 1019.8 |
| 20260831175330 | 76 | 258 | 0.0 | 0.0 | 0.00 | 0.01 | 0.00 | 71 | 1019.9 |
| 20260831174826 | 76 | 258 | 0.0 | 0.0 | 0.00 | 0.01 | 0.00 | 71 | 1020.0 |
| 20260831174322 | 76 | 258 | 0.0 | 1.0 | 0.00 | 0.01 | 0.00 | 69 | 1020.0 |
| 20260831173819 | 76 | 258 | 0.0 | 1.0 | 0.00 | 0.01 | 0.00 | 70 | 1019.9 |
| 20260831173315 | 76 | 351 | 0.0 | 0.0 | 0.00 | 0.01 | 0.00 | 71 | 1019.9 |
| 20260831172812 | 76 | 345 | 0.0 | 1.0 | 0.00 | 0.01 | 0.00 | 70 | 1019.9 |
| 20260831172313 | 76 | 317 | 0.0 | 1.0 | 0.00 | 0.01 | 0.00 | 72 | 1019.9 |
| 20260831171829 | 76 | 317 | 0.0 | 2.0 | 0.00 | 0.01 | 0.00 | 69 | 1019.8 |
| 20260831171324 | 76 | 317 | 1.0 | 2.0 | 0.00 | 0.01 | 0.00 | 69 | 1019.8 |
| 20260831170821 | 76 | 306 | 0.0 | 0.0 | 0.00 | 0.01 | 0.00 | 70 | 1019.8 |
| 20260831170317 | 76 | 305 | 0.0 | 1.0 | 0.00 | 0.01 | 0.00 | 71 | 1019.9 |
| 20260831165811 | 76 | 5 | 0.0 | 2.0 | 0.00 | 0.01 | 0.00 | 68 | 1019.9 |
| 20260831165328 | 76 | 5 | 0.0 | 2.0 | 0.00 | 0.01 | 0.00 | 67 | 1019.9 |
| 20260831164828 | 77 | 208 | 1.0 | 3.0 | 0.00 | 0.01 | 0.00 | 68 | 1019.9 |
| 20260831164324 | 76 | 130 | 0.0 | 3.0 | 0.00 | 0.01 | 0.00 | 68 | 1019.9 |
| 20260831163820 | 76 | 360 | 0.0 | 4.0 | 0.00 | 0.01 | 0.00 | 71 | 1020.0 |
| 20260831163317 | 76 | 360 | 2.0 | 4.0 | 0.00 | 0.01 | 0.00 | 71 | 1019.9 |
| 20260831162813 | 75 | 14 | 0.0 | 3.0 | 0.00 | 0.01 | 0.00 | 70 | 1019.9 |
| 20260831162329 | 75 | 96 | 1.0 | 3.0 | 0.00 | 0.01 | 0.00 | 70 | 1019.9 |
| 20260831161825 | 76 | 281 | 1.0 | 4.0 | 0.00 | 0.01 | 0.00 | 69 | 1020.0 |
| 20260831161324 | 76 | 102 | 3.0 | 4.0 | 0.00 | 0.01 | 0.00 | 70 | 1019.9 |
| 20260831160821 | 76 | 321 | 1.0 | 2.0 | 0.00 | 0.01 | 0.00 | 72 | 1020.0 |
| 20260831160317 | 75 | 336 | 0.0 | 3.0 | 0.00 | 0.01 | 0.00 | 71 | 1020.1 |
| 20260831155812 | 75 | 304 | 1.0 | 4.0 | 0.00 | 0.01 | 0.00 | 70 | 1020.1 |
| 20260831155329 | 75 | 5 | 0.0 | 4.0 | 0.00 | 0.01 | 0.00 | 69 | 1020.1 |
| 20260831154825 | 76 | 81 | 0.0 | 4.0 | 0.00 | 0.01 | 0.00 | 69 | 1020.1 |
| 20260831154320 | 75 | 74 | 0.0 | 6.0 | 0.00 | 0.01 | 0.00 | 69 | 1020.2 |
| 20260831153821 | 76 | 105 | 3.0 | 6.0 | 0.00 | 0.01 | 0.00 | 68 | 1020.4 |
| 20260831153317 | 76 | 56 | 1.0 | 2.0 | 0.00 | 0.01 | 0.00 | 68 | 1020.3 |
| 20260831152812 | 75 | 92 | 0.0 | 4.0 | 0.00 | 0.01 | 0.00 | 72 | 1020.3 |
| 20260831152329 | 75 | 76 | 1.0 | 4.0 | 0.00 | 0.01 | 0.00 | 72 | 1020.4 |
| 20260831151825 | 75 | 349 | 1.0 | 4.0 | 0.00 | 0.01 | 0.00 | 71 | 1020.3 |
| 20260831151321 | 74 | 115 | 2.0 | 4.0 | 0.00 | 0.01 | 0.00 | 73 | 1020.3 |
| 20260831150818 | 74 | 69 | 1.0 | 3.0 | 0.00 | 0.01 | 0.00 | 73 | 1020.3 |
| 20260831150319 | 74 | 216 | 0.0 | 3.0 | 0.00 | 0.01 | 0.00 | 72 | 1020.4 |
| 20260831145814 | 74 | 282 | 0.0 | 4.0 | 0.00 | 0.01 | 0.00 | 72 | 1020.5 |
| 20260831145311 | 75 | 5 | 1.0 | 4.0 | 0.00 | 0.01 | 0.00 | 72 | 1020.5 |
| 20260831144827 | 74 | 109 | 1.0 | 3.0 | 0.00 | 0.01 | 0.00 | 72 | 1020.4 |
| 20260831144323 | 74 | 98 | 1.0 | 3.0 | 0.00 | 0.01 | 0.00 | 72 | 1020.5 |
| 20260831143820 | 73 | 5 | 0.0 | 1.0 | 0.00 | 0.01 | 0.00 | 73 | 1020.5 |
| 20260831143316 | 73 | 64 | 0.0 | 4.0 | 0.00 | 0.01 | 0.00 | 75 | 1020.6 |
| 20260831142816 | 74 | 74 | 1.0 | 4.0 | 0.00 | 0.01 | 0.00 | 72 | 1020.6 |
| 20260831142313 | 74 | 140 | 1.0 | 4.0 | 0.00 | 0.01 | 0.00 | 74 | 1020.7 |
| 20260831141810 | 74 | 122 | 1.0 | 5.0 | 0.00 | 0.01 | 0.00 | 76 | 1020.7 |
| 20260831141326 | 73 | 57 | 1.0 | 5.0 | 0.00 | 0.01 | 0.00 | 74 | 1020.8 |
| 20260831140823 | 73 | 331 | 0.0 | 2.0 | 0.00 | 0.01 | 0.00 | 76 | 1020.7 |
| 20260831140320 | 72 | 84 | 1.0 | 2.0 | 0.00 | 0.01 | 0.00 | 77 | 1020.6 |
| 20260831135814 | 72 | 5 | 0.0 | 3.0 | 0.00 | 0.01 | 0.00 | 78 | 1020.5 |
| 20260831135314 | 72 | 101 | 1.0 | 4.0 | 0.00 | 0.01 | 0.00 | 78 | 1020.5 |
| 20260831134811 | 71 | 123 | 1.0 | 4.0 | 0.00 | 0.01 | 0.00 | 79 | 1020.6 |
| 20260831134327 | 71 | 106 | 0.0 | 2.0 | 0.00 | 0.01 | 0.00 | 79 | 1020.6 |
| 20260831133823 | 71 | 284 | 0.0 | 2.0 | 0.00 | 0.01 | 0.00 | 80 | 1020.6 |
| 20260831133320 | 71 | 150 | 0.0 | 1.0 | 0.00 | 0.01 | 0.00 | 80 | 1020.4 |
| 20260831132815 | 71 | 154 | 0.0 | 2.0 | 0.00 | 0.01 | 0.00 | 80 | 1020.3 |
| 20260831132312 | 71 | 118 | 0.0 | 2.0 | 0.00 | 0.01 | 0.00 | 80 | 1020.4 |
| 20260831131813 | 71 | 141 | 0.0 | 1.0 | 0.00 | 0.01 | 0.00 | 80 | 1020.4 |
| 20260831131328 | 71 | 141 | 0.0 | 4.0 | 0.00 | 0.01 | 0.00 | 81 | 1020.3 |
| 20260831130824 | 71 | 335 | 2.0 | 4.0 | 0.00 | 0.01 | 0.00 | 80 | 1020.4 |
| 20260831130321 | 70 | 112 | 1.0 | 3.0 | 0.00 | 0.01 | 0.00 | 81 | 1020.4 |
| 20260831125816 | 70 | 88 | 0.0 | 3.0 | 0.00 | 0.01 | 0.00 | 82 | 1020.4 |
| 20260831125313 | 70 | 19 | 0.0 | 3.0 | 0.00 | 0.01 | 0.00 | 82 | 1020.5 |
| 20260831124830 | 69 | 314 | 0.0 | 1.0 | 0.00 | 0.01 | 0.00 | 81 | 1020.5 |
| 20260831124325 | 69 | 302 | 0.0 | 0.0 | 0.00 | 0.01 | 0.00 | 82 | 1020.6 |
| 20260831123825 | 69 | 302 | 0.0 | 2.0 | 0.00 | 0.01 | 0.00 | 83 | 1020.6 |
| 20260831123322 | 69 | 302 | 1.0 | 2.0 | 0.00 | 0.01 | 0.00 | 83 | 1020.6 |
| 20260831122817 | 68 | 319 | 1.0 | 2.0 | 0.00 | 0.01 | 0.00 | 83 | 1020.5 |
| 20260831122314 | 68 | 320 | 0.0 | 3.0 | 0.00 | 0.01 | 0.00 | 85 | 1020.5 |
| 20260831121811 | 68 | 318 | 1.0 | 3.0 | 0.00 | 0.01 | 0.00 | 85 | 1020.4 |
| 20260831121325 | 68 | 348 | 1.0 | 3.0 | 0.00 | 0.01 | 0.00 | 85 | 1020.4 |
| 20260831120822 | 68 | 331 | 1.0 | 3.0 | 0.00 | 0.01 | 0.00 | 86 | 1020.5 |
| 20260831120322 | 68 | 321 | 0.0 | 3.0 | 0.00 | 0.01 | 0.00 | 86 | 1020.4 |
| 20260831115818 | 68 | 316 | 1.0 | 3.0 | 0.00 | 0.01 | 0.00 | 86 | 1020.4 |
| 20260831115315 | 68 | 5 | 0.0 | 0.0 | 0.00 | 0.01 | 0.00 | 86 | 1020.3 |
| 20260831114812 | 67 | 69 | 0.0 | 0.0 | 0.00 | 0.01 | 0.00 | 87 | 1020.3 |
| 20260831114328 | 67 | 70 | 0.0 | 0.0 | 0.00 | 0.01 | 0.00 | 86 | 1020.3 |
| 20260831113824 | 67 | 70 | 0.0 | 0.0 | 0.00 | 0.01 | 0.00 | 86 | 1020.3 |
| 20260831113321 | 67 | 51 | 0.0 | 0.0 | 0.00 | 0.01 | 0.00 | 86 | 1020.3 |
| 20260831112819 | 67 | 51 | 0.0 | 0.0 | 0.00 | 0.01 | 0.00 | 86 | 1020.3 |
| 20260831112317 | 67 | 51 | 0.0 | 0.0 | 0.00 | 0.01 | 0.00 | 87 | 1020.2 |